Weather History for Sturgeon Bay, WI

Change the Weather History Date:

Saturday, March 22, 2014

  Actual Average Record
Temperature  
Mean Temperature 21 °F -  
Max Temperature 32 °F 40 °F 66 °F (1907)
Min Temperature 12 °F 22 °F -5 °F (1906)
Degree Days  
Heating Degree Days 44    
Moisture  
Dew Point 14 °F    
Average Humidity 64    
Maximum Humidity 93    
Minimum Humidity 43    
Precipitation  
Precipitation 0.00 in - - ()
Sea Level Pressure  
Sea Level Pressure 30.12 in    
Wind  
Wind Speed 12 mph (NNW)    
Max Wind Speed 21 mph    
Max Gust Speed 26 mph    
Visibility 10 miles    
Events      
Averages and records for this station are not official NWS values.
T = Trace of Precipitation, MM = Missing Value Source: NWS Daily Summary

Daily Weather History Graph

Daily Weather History Graph

Search for Another Location

Airport:

Trip Planner

Search our weather history database for the weather conditions in past years. The results will help you decide how hot, cold, wet, or windy it might be!

Date:

Astronomy

Mar. 22, 2014 Rise Set
Actual Time 6:49 AM CDT 7:04 PM CDT
Civil Twilight 6:19 AM CDT 7:34 PM CDT
Nautical Twilight 5:45 AM CDT 8:08 PM CDT
Astronomical Twilight 5:10 AM CDT 8:43 PM CDT
Moon 12:35 AM CDT (3/22) 10:19 AM CDT (3/22)
Length of Visible Light 13h 14m
Length of Day
12h 15m
Waning Gibbous, 65% of the Moon is Illuminated
Mar 22
Waning Gibbous
Mar 23
Last Quarter
Mar 30
New
Apr 7
First Quarter
Apr 15
Full

Hourly Weather History & Observations

Time (CDT) Temp. Windchill Dew Point Humidity Pressure Visibility Wind Dir Wind Speed Gust Speed Precip Events Conditions
12:15 AM 28.4 °F 20.4 °F 26.6 °F 93% 29.81 in 7.0 mi North 8.1 mph - N/A   Overcast
12:35 AM 28.4 °F 18.5 °F 24.8 °F 86% 29.82 in 9.0 mi NNW 11.5 mph - N/A   Overcast
12:55 AM 28.4 °F 17.5 °F 24.8 °F 86% 29.83 in 8.0 mi NNW 13.8 mph - N/A   Overcast
1:15 AM 26.6 °F 15.2 °F 24.8 °F 93% 29.84 in 10.0 mi NNW 13.8 mph - N/A   Overcast
1:35 AM 28.4 °F 17.0 °F 24.8 °F 86% 29.85 in 10.0 mi North 15.0 mph 19.6 mph N/A   Overcast
1:55 AM 28.4 °F 18.0 °F 24.8 °F 86% 29.86 in 10.0 mi NNW 12.7 mph - N/A   Overcast
2:15 AM 28.4 °F 18.5 °F 24.8 °F 86% 29.86 in 10.0 mi North 11.5 mph - N/A   Overcast
2:35 AM 28.4 °F 20.4 °F 26.6 °F 93% 29.87 in 10.0 mi NNW 8.1 mph - N/A   Overcast
2:55 AM 28.4 °F 22.2 °F 26.6 °F 93% 29.87 in 10.0 mi WNW 5.8 mph - N/A   Overcast
3:15 AM 28.4 °F 21.2 °F 26.6 °F 93% 29.89 in 10.0 mi WNW 6.9 mph - N/A   Overcast
3:35 AM 28.4 °F 21.2 °F 26.6 °F 93% 29.89 in 10.0 mi WNW 6.9 mph - N/A   Overcast
3:55 AM 28.4 °F 21.2 °F 26.6 °F 93% 29.91 in 10.0 mi WNW 6.9 mph - N/A   Overcast
4:15 AM 30.2 °F 23.4 °F 26.6 °F 86% 29.92 in 10.0 mi WNW 6.9 mph - N/A   Overcast
4:35 AM 30.2 °F 20.8 °F 26.6 °F 86% 29.92 in 10.0 mi NW 11.5 mph - N/A   Overcast
4:55 AM 30.2 °F 21.3 °F 26.6 °F 86% 29.93 in 10.0 mi WNW 10.4 mph - N/A   Overcast
5:15 AM 30.2 °F 23.4 °F 26.6 °F 86% 29.94 in 10.0 mi WNW 6.9 mph - N/A   Overcast
5:35 AM 30.2 °F 22.6 °F 26.6 °F 86% 29.95 in 10.0 mi NW 8.1 mph - N/A   Overcast
5:55 AM 30.2 °F 21.3 °F 26.6 °F 86% 29.96 in 10.0 mi NW 10.4 mph - N/A   Overcast
6:15 AM 30.2 °F 21.3 °F 26.6 °F 86% 29.97 in 10.0 mi NW 10.4 mph - N/A   Overcast
6:35 AM 30.2 °F 21.3 °F 26.6 °F 86% 29.98 in 10.0 mi NW 10.4 mph - N/A   Overcast
6:55 AM 30.2 °F 18.5 °F 24.8 °F 80% 29.99 in 10.0 mi NNW 17.3 mph - N/A   Overcast
7:15 AM 30.2 °F 18.1 °F 24.8 °F 80% 30.01 in 10.0 mi NNW 18.4 mph 24.2 mph N/A   Overcast
7:35 AM 30.2 °F 18.5 °F 21.2 °F 69% 30.03 in 10.0 mi NNW 17.3 mph 25.3 mph N/A   Overcast
7:55 AM 28.4 °F 15.4 °F 19.4 °F 69% 30.05 in 10.0 mi NNW 19.6 mph 26.5 mph N/A   Overcast
8:15 AM 26.6 °F 13.1 °F 17.6 °F 69% 30.06 in 10.0 mi NNW 19.6 mph - N/A   Overcast
8:35 AM 26.6 °F 12.7 °F 15.8 °F 64% 30.07 in 10.0 mi NNW 20.7 mph - N/A   Overcast
8:55 AM 24.8 °F 11.1 °F 15.8 °F 69% 30.08 in 10.0 mi NNW 18.4 mph 24.2 mph N/A   Overcast
9:15 AM 24.8 °F 10.3 °F 15.8 °F 69% 30.10 in 10.0 mi North 20.7 mph 25.3 mph N/A   Overcast
9:35 AM 24.8 °F 10.7 °F 15.8 °F 69% 30.12 in 10.0 mi North 19.6 mph - N/A   Overcast
9:55 AM 24.8 °F 11.5 °F 14.0 °F 64% 30.13 in 10.0 mi NNW 17.3 mph 24.2 mph N/A   Overcast
10:15 AM 24.8 °F 12.9 °F 12.2 °F 59% 30.14 in 10.0 mi North 13.8 mph 24.2 mph N/A   Overcast
10:35 AM 24.8 °F 11.1 °F 12.2 °F 59% 30.14 in 10.0 mi NNW 18.4 mph 24.2 mph N/A   Overcast
10:55 AM 24.8 °F 11.1 °F 14.0 °F 64% 30.15 in 10.0 mi NNW 18.4 mph 24.2 mph N/A   Overcast
11:15 AM 24.8 °F 10.7 °F 12.2 °F 59% 30.16 in 10.0 mi NNW 19.6 mph 24.2 mph N/A   Mostly Cloudy
11:35 AM 24.8 °F 11.9 °F 12.2 °F 59% 30.17 in 10.0 mi NNW 16.1 mph 21.9 mph N/A   Partly Cloudy
11:55 AM 24.8 °F 12.4 °F 12.2 °F 59% 30.17 in 9.0 mi NNW 15.0 mph 21.9 mph N/A   Partly Cloudy
12:15 PM 24.8 °F 11.5 °F 10.4 °F 54% 30.18 in 10.0 mi North 17.3 mph 20.7 mph N/A   Clear
12:35 PM 24.8 °F 11.9 °F 10.4 °F 54% 30.18 in 10.0 mi NNW 16.1 mph - N/A   Partly Cloudy
12:55 PM 24.8 °F 13.4 °F 8.6 °F 50% 30.19 in 10.0 mi North 12.7 mph - N/A   Mostly Cloudy
1:15 PM 24.8 °F 12.4 °F 10.4 °F 54% 30.18 in 10.0 mi NNW 15.0 mph - N/A   Overcast
1:35 PM 26.6 °F 14.3 °F 10.4 °F 51% 30.18 in 10.0 mi WNW 16.1 mph - N/A   Overcast
1:55 PM 26.6 °F 15.2 °F 8.6 °F 47% 30.19 in 10.0 mi NNW 13.8 mph 18.4 mph N/A   Mostly Cloudy
2:15 PM 26.6 °F 16.2 °F 10.4 °F 51% 30.19 in 10.0 mi NNW 11.5 mph - N/A   Scattered Clouds
2:35 PM 26.6 °F 15.7 °F 8.6 °F 47% 30.19 in 10.0 mi NW 12.7 mph - N/A   Mostly Cloudy
2:55 PM 26.6 °F 16.2 °F 6.8 °F 43% 30.19 in 10.0 mi NW 11.5 mph 17.3 mph N/A   Scattered Clouds
3:15 PM 26.6 °F 15.7 °F 8.6 °F 47% 30.19 in 10.0 mi NNW 12.7 mph 18.4 mph N/A   Clear
3:35 PM 26.6 °F 16.8 °F 6.8 °F 43% 30.20 in 10.0 mi NNW 10.4 mph - N/A   Clear
3:55 PM 26.6 °F 15.7 °F 6.8 °F 43% 30.20 in 10.0 mi North 12.7 mph - N/A   Clear
4:15 PM 26.6 °F 16.8 °F 6.8 °F 43% 30.20 in 10.0 mi North 10.4 mph - N/A   Partly Cloudy
4:35 PM 26.6 °F 17.5 °F 6.8 °F 43% 30.20 in 10.0 mi North 9.2 mph - N/A   Partly Cloudy
4:55 PM 26.6 °F 16.2 °F 6.8 °F 43% 30.20 in 10.0 mi North 11.5 mph 17.3 mph N/A   Mostly Cloudy
5:15 PM 24.8 °F 15.3 °F 6.8 °F 46% 30.21 in 10.0 mi North 9.2 mph - N/A   Mostly Cloudy
5:35 PM 24.8 °F 14.6 °F 6.8 °F 46% 30.22 in 10.0 mi North 10.4 mph - N/A   Overcast
5:55 PM 24.8 °F 15.3 °F 6.8 °F 46% 30.22 in 10.0 mi North 9.2 mph - N/A   Overcast
6:15 PM 24.8 °F 14.6 °F 6.8 °F 46% 30.23 in 10.0 mi North 10.4 mph - N/A   Overcast
6:35 PM 24.8 °F 14.6 °F 6.8 °F 46% 30.23 in 10.0 mi North 10.4 mph - N/A   Overcast
6:55 PM 23.0 °F 10.6 °F 5.0 °F 46% 30.24 in 10.0 mi North 13.8 mph - N/A   Overcast
7:15 PM 21.2 °F 8.3 °F 5.0 °F 50% 30.25 in 10.0 mi North 13.8 mph - N/A   Overcast
7:35 PM 21.2 °F 8.3 °F 5.0 °F 50% 30.26 in 10.0 mi North 13.8 mph - N/A   Overcast
7:55 PM 19.4 °F 5.0 °F 3.2 °F 49% 30.27 in 10.0 mi North 16.1 mph - N/A   Overcast
8:15 PM 19.4 °F 5.5 °F 3.2 °F 49% 30.28 in 10.0 mi North 15.0 mph - N/A   Overcast
8:35 PM 19.4 °F 6.6 °F 3.2 °F 49% 30.30 in 10.0 mi North 12.7 mph - N/A   Overcast
8:55 PM 17.6 °F 3.2 °F 1.4 °F 49% 30.30 in 10.0 mi North 15.0 mph - N/A   Mostly Cloudy
9:15 PM 17.6 °F 3.7 °F 3.2 °F 53% 30.31 in 10.0 mi North 13.8 mph 19.6 mph N/A   Clear
9:35 PM 17.6 °F 5.0 °F 3.2 °F 53% 30.32 in 10.0 mi North 11.5 mph - N/A   Clear
9:55 PM 17.6 °F 3.7 °F 1.4 °F 49% 30.32 in 10.0 mi North 13.8 mph - N/A   Clear
10:15 PM 15.8 °F 2.1 °F 1.4 °F 53% 30.33 in 10.0 mi North 12.7 mph - N/A   Clear
10:35 PM 15.8 °F 2.1 °F 3.2 °F 58% 30.34 in 10.0 mi North 12.7 mph - N/A   Clear
10:55 PM 14.0 °F -1.4 °F 1.4 °F 57% 30.34 in 10.0 mi North 15.0 mph - N/A   Clear
11:15 PM 12.2 °F -3.1 °F 1.4 °F 62% 30.35 in 10.0 mi North 13.8 mph - N/A   Clear
11:35 PM 12.2 °F -1.8 °F 1.4 °F 62% 30.36 in 10.0 mi North 11.5 mph - N/A   Clear
11:55 PM 12.2 °F -2.5 °F 1.4 °F 62% 30.36 in 10.0 mi NNW 12.7 mph 17.3 mph N/A   Clear